This is the latest recevied weather packets stored in our database for station/object KMASWX. If no packets are shown the sender has not sent any weather packets the latest 10 day(s).
| Time | Temp. | Humidity | Pressure | Rain* | Wind** | Luminosity | Snow |
|---|---|---|---|---|---|---|---|
| 1777656374 | 17.22° C | 42% | - | 0 mm | - | - | - |
| 1777656071 | 16.67° C | 42% | - | 0 mm | - | - | - |
| 1777655764 | 16.67° C | 44% | - | 0 mm | - | - | - |
| 1777655460 | 16.11° C | 45% | - | 0 mm | - | - | - |
| 1777655157 | 15.56° C | 45% | - | 0 mm | - | - | - |
| 1777653932 | 15° C | 46% | - | 0 mm | - | - | - |
| 1777652412 | 14.44° C | 51% | - | 0 mm | - | - | - |
| 1777652105 | 13.89° C | 53% | - | 0 mm | - | - | - |
| 1777651802 | 13.89° C | 53% | - | 0 mm | - | - | - |
| 1777651194 | 13.89° C | 53% | - | 0 mm | - | - | - |
| 1777650888 | 13.89° C | 55% | - | 0 mm | - | - | - |
| 1777649972 | 13.33° C | 55% | - | 0 mm | - | - | - |
| 1777649668 | 13.33° C | 54% | - | 0 mm | - | - | - |
| 1777649057 | 13.89° C | 51% | - | 0 mm | - | - | - |
| 1777648749 | 13.89° C | 51% | - | 0 mm | - | - | - |
| 1777648445 | 13.89° C | 51% | - | 0 mm | - | - | - |
| 1777648142 | 13.89° C | 54% | - | 0 mm | - | - | - |
| 1777647838 | 12.78° C | 57% | - | 0 mm | - | - | - |
| 1777647532 | 12.22° C | 58% | - | 0 mm | - | - | - |
| 1777647228 | 12.22° C | 58% | - | 0 mm | - | - | - |
| 1777646925 | 11.67° C | 58% | - | 0 mm | - | - | - |
| 1777646618 | 11.67° C | 57% | - | 0 mm | - | - | - |
| 1777646315 | 11.67° C | 57% | - | 0 mm | - | - | - |
| 1777646011 | 11.67° C | 58% | - | 0 mm | - | - | - |
| 1777645703 | 11.67° C | 61% | - | 0 mm | - | - | - |
* Rain latest 24 hours (hover to see other rain measurements)
** Current wind speed in m/s (hover to see current wind gust speed)